SCP
0 0 0 0 0 0 0 0 0 0 0 0 0 0 0 0 0 0 0 0 0 0 0 0 0 0 0 0 0 0 0 0 0 0 0 0 0 0 0 0 0 0 0 0 0 0 0 0 0 0 0 0 0 0
0 0 0 0 0 0 0 0 0 0 0 0 0 0 0 0 0 0 0 0 0 0 0 0 0 0 0 0 0 0 0 0 0 0 0 0 0 0 0 0 0 0 0 0 0 0 0 0 0 0 0 0 0 0
0 0 0 0 0 0 0 -0 -0 0 0 0 0 0 0 0 0 0 0 0 0 0 0 0 0 0 0 0 0 0 0 0 0 0 0 0 0 0 0 0 0 0 0 0 0 0 0 0 0 0 0 0 0 0
0 0 0 0 0 0 0 0 0 0 -0 -0 0 0 0 0 0 0 0 0 0 0 0 0 0 0 0 0 0 0 0 0 0 0 0 0 0 0 0 0 0 0 0 0 0 0 0 0 0 0 0 0 0 0
0 0 0 0 0 0 0 0 0 0 -0 -0 0 0 0 0 0 0 0 0 0 0 0 0 0 0 0 0 0 0 0 0 0 0 0 0 0 0 0 0 0 0 0 0 0 0 0 0 0 0 0 0 0 0
0 0 0 0 0 0 0 0 0 0 0 -0 -0 0 0 0 0 0 0 0 0 0 0 0 0 0 0 0 0 0 0 0 0 0 0 0 0 0 0 0 0 0 0 0 0 0 0 0 0 0 0 0 0 0
0 0 0 0 0 0 0 0 0 0 0 -0 -0 -0 -0 0 0 0 0 0 0 0 0 0 0 0 0 0 0 0 0 0 0 0 0 0 0 0 0 0 0 0 0 0 -0 -0 0 0 0 0 0 0 0 0
0 0 0 0 0 0 0 0 0 0 0 -0 -0 -0 -0 0 0 0 0 0 0 0 0 0 0 0 0 0 0 0 0 0 0 0 0 0 0 0 0 0 0 0 0 0 0 0 0 0 -0 0 0 0 0 0
0 0 0 0 0 0 0 0 0 0 0 0 -0 -0 0 0 0 0 0 0 0 0 0 0 0 0 0 0 0 0 0 0 0 0 0 0 0 0 0 0 0 -0 -0 0 0 0 0 0 0 -0 0 0 0 0
0 0 0 0 0 0 0 0 0 0 0 0 0 0 0 0 0 0 0 0 0 0 0 0 0 0 0 0 0 0 0 0 0 0 0 0 0 0 0 0 0 0 0 0 0 0 0 0 0 0 0 0 0 0
0 0 0 0 0 0 0 0 0 0 0 0 0 0 0 0 0 0 0 0 0 0 0 0 0 0 0 0 0 0 0 0 0 0 0 0 0 0 0 0 0 0 0 0 0 0 0 0 0 0 0 0 -0 -0
0 0 0 0 0 0 0 0 0 0 0 0 0 0 0 0 0 0 0 0 0 0 0 0 0 0 0 0 0 0 0 0 0 0 0 0 0 0 0 0 0 0 0 0 0 0 0 0 0 0 0 0 0 0
0 0 0 0 0 0 0 0 0 0 0 0 0 0 0 0 0 0 0 0 0 0 0 0 0 0 0 0 0 0 0 -0 -0 0 0 0 0 0 0 0 -0 -0 -0 -0 -0 -0 0 0 0 0 0 0 0 0
0 0 0 -0 -0 0 0 0 0 0 0 0 0 0 0 0 0 0 0 0 0 0 0 0 0 0 0 0 -0 -0 -0 0 0 0 -0 0 0 -0 -0 -0 -0 -0 -0 -0 -0 -0 -0 -0 0 0 0 0 0 0
0 0 0 0 0 0 0 0 0 0 0 0 0 0 0 0 0 0 0 0 0 -0 -0 0 0 0 0 0 -0 0 0 0 0 0 0 0 -0 -0 -0 -0 -0 -0 0 0 0 0 0 0 0 0 0 0 0 0
0 0 0 0 0 0 0 0 0 0 0 0 0 0 0 0 0 0 0 0 0 0 0 0 0 0 0 0 0 0 0 0 0 0 0 0 0 0 0 0 0 0 0 0 0 0 0 0 0 0 0 0 0 0
0 0 0 0 0 0 0 0 0 0 0 0 0 0 0 0 0 0 0 0 0 0 0 0 0 0 0 0 0 0 0 0 0 0 0 0 0 0 0 0 0 0 0 0 0 0 0 0 0 0 0 0 0 0
0 0 0 0 0 0 0 0 0 0 0 0 0 0 0 0 0 0 0 0 0 0 0 0 0 0 0 0 0 0 0 0 0 0 0 0 0 0 0 0 -0 -0 0 -0 0 0 0 0 0 -0 0 0 0 0
0 0 0 0 0 0 0 0 0 0 0 0 0 0 0 0 0 0 0 0 0 0 0 0 0 0 0 0 0 0 0 0 0 0 0 0 0 0 0 0 0 0 0 0 0 0 0 0 0 0 0 0 0 0
0 0 0 0 0 0 0 0 0 0 0 0 0 0 0 0 0 0 0 0 0 0 0 0 0 0 0 0 0 0 0 0 0 0 0 0 0 0 0 0 0 0 0 0 0 0 0 0 0 0 0 0 0 0
0 0 0 0 0 0 0 0 0 0 0 0 0 0 0 0 0 0 0 0 0 0 0 0 0 0 0 0 0 0 0 0 0 0 0 0 0 0 0 0 0 0 0 0 0 0 0 0 0 0 0 0 0 0
0 0 0 0 0 0 0 0 0 0 0 0 0 0 0 0 0 0 0 0 0 0 0 0 0 0 0 0 0 0 0 0 0 0 0 0 0 0 0 0 0 0 0 0 0 0 0 0 0 0 0 0 0 0
0 0 0 0 0 0 0 0 0 0 0 0 0 0 0 0 0 0 0 0 0 0 0 0 0 0 0 0 0 0 0 0 0 0 0 0 0 0 0 0 0 0 0 0 0 0 0 -0 0 0 0 0 0 0
0 0 0 0 0 0 0 0 0 0 0 0 0 0 0 0 0 0 0 0 0 0 0 0 0 0 0 0 0 0 0 0 0 0 0 0 0 0 0 0 0 0 0 0 0 0 0 -0 -0 0 0 0 0 0
0 0 0 0 0 0 0 0 0 0 0 0 0 0 0 0 0 0 0 0 0 0 0 0 0 0 0 0 0 0 0 0 0 0 0 0 0 0 0 0 0 0 0 0 -0 0 0 0 0 -0 -0 0 0 0
0 0 0 0 0 0 0 0 0 0 0 0 0 0 0 0 0 0 0 0 0 0 0 0 0 0 0 0 0 0 0 0 0 0 0 0 0 0 0 0 0 0 0 0 0 -0 -0 -0 -0 0 -0 -0 -0 -0
0 0 0 0 0 0 0 0 0 0 0 0 0 0 0 0 0 0 0 0 0 0 0 0 0 0 0 0 0 0 0 0 0 0 0 0 0 0 0 0 0 0 0 0 0 0 -0 -0 -0 -0 -0 -0 -0 -0
0 0 0 0 0 0 0 0 0 0 0 0 0 0 0 0 0 0 0 0 0 0 0 0 0 0 0 0 0 0 0 0 0 0 0 0 0 0 0 0 0 0 0 0 0 0 0 0 -0 -0 -0 -0 -0 0
0 0 0 0 0 0 0 0 0 0 0 0 0 0 0 0 0 0 0 0 0 0 0 0 0 0 0 0 0 0 0 0 0 0 -0 -0 -0 0 0 -0 0 0 0 0 0 -0 -0 -0 -0 0 -0 -0 -0 -0
0 0 0 0 0 0 0 0 0 0 0 0 0 -0 0 0 0 0 0 0 0 0 0 0 0 0 0 0 0 0 0 0 0 -0 -0 -0 0 0 0 0 0 0 0 0 0 0 0 0 0 0 -0 -0 -0 -0
0 0 0 0 0 -0 0 0 0 0 0 0 0 0 0 0 -0 0 0 0 0 0 0 0 0 0 0 0 0 0 0 0 0 0 0 0 0 0 0 0 0 0 0 0 0 0 0 0 0 0 0 0 -0 -0
0 0 0 0 0 0 0 0 -0 -0 0 0 0 0 0 0 0 0 0 0 0 0 0 0 -0 -0 0 0 0 0 0 -0 -0 0 0 0 -0 0 0 0 0 0 0 0 0 0 0 0 0 0 0 0 0 0
0 0 0 0 0 0 0 0 -0 -0 0 0 0 0 0 0 0 0 0 0 0 0 0 0 0 0 0 0 0 -0 0 0 0 0 0 0 0 0 0 0 0 0 0 0 0 0 0 0 0 0 0 0 0 0
Wind_Speed_500mb
49 47 44 41 33 35 36 36 36 36 23 19 21 18 21 16 6 8 9 3 2 6 11 4 5 10 7 9 5 13 6 13 11 9 4 2 4 5 5 5 7 4 2 4 4 5 11 45 25 4 13 9 12 8
46 43 42 38 38 37 37 34 34 29 24 18 18 16 19 15 8 2 6 5 8 11 8 9 11 8 4 8 9 10 6 1 5 7 3 1 2 5 3 5 12 1 4 6 9 6 16 39 30 34 13 16 19 24
44 42 42 40 38 37 35 34 30 29 19 16 13 15 17 14 7 5 5 7 8 8 6 6 13 16 12 10 6 5 7 7 5 7 6 3 1 4 3 4 5 6 11 1 4 8 27 55 70 47 18 11 28 28
46 44 39 37 36 35 31 27 27 25 15 16 12 12 17 10 5 10 13 16 12 4 4 5 18 20 17 6 4 10 12 5 3 4 3 3 2 3 5 5 3 7 11 8 8 15 28 56 67 68 36 15 18 19
46 45 40 37 35 29 24 25 24 16 17 16 8 11 13 7 7 16 16 15 17 10 2 5 24 27 18 8 6 6 6 1 4 1 3 5 6 0 2 4 5 2 3 5 5 12 4 31 53 52 47 24 22 20
41 41 40 35 30 26 22 22 20 18 17 12 10 11 10 9 19 10 5 7 8 18 6 3 5 14 17 12 8 6 6 4 4 4 6 8 7 2 2 5 10 11 10 17 8 35 37 42 35 39 33 34 6 15
41 43 41 38 28 22 21 19 17 15 15 14 11 9 8 8 8 8 6 3 6 15 6 7 10 9 18 10 11 10 8 4 4 5 7 7 5 2 4 5 9 35 42 51 60 53 37 32 33 31 21 24 17 13
42 41 42 32 32 24 20 16 15 15 19 12 9 11 13 17 18 13 12 5 7 6 7 4 6 7 23 13 7 15 11 5 5 5 4 4 8 2 4 14 14 30 38 38 27 36 46 43 34 20 15 23 24 4
39 39 40 35 27 24 22 20 17 17 15 14 14 18 13 12 10 11 15 13 11 7 5 5 3 2 15 12 10 7 9 5 12 2 4 2 3 8 11 6 24 36 37 47 55 45 33 37 40 33 28 23 22 24
35 37 39 34 27 24 24 25 18 13 13 15 9 7 8 8 7 6 5 4 6 9 8 5 1 3 12 13 10 12 8 3 6 7 12 1 7 22 10 4 24 31 45 43 30 44 47 47 36 49 48 43 38 34
31 31 32 35 31 25 25 24 15 12 10 10 9 7 7 5 6 4 5 7 9 7 7 5 3 3 10 5 3 7 1 4 5 8 2 5 6 5 8 22 33 35 41 39 34 27 38 43 32 40 42 41 40 39
34 30 25 27 28 28 26 24 22 17 11 9 6 6 7 6 4 5 4 3 5 6 8 4 4 4 4 5 5 7 2 5 7 16 4 6 7 3 26 39 51 55 56 55 56 50 35 30 31 35 39 37 36 37
32 25 18 25 30 28 24 21 20 16 8 7 6 4 7 7 13 8 7 3 4 1 11 5 3 2 2 7 4 4 4 6 14 2 6 8 5 29 48 60 66 72 71 74 81 76 70 65 53 49 52 51 48 48
32 23 10 18 23 27 26 19 13 12 6 5 8 10 6 6 6 6 6 5 8 14 29 15 4 2 1 2 2 3 3 5 5 6 9 5 27 64 74 70 63 78 84 81 73 71 78 71 71 73 73 70 66 72
30 18 12 26 34 28 18 15 9 6 5 6 6 7 7 6 9 13 17 7 13 21 20 10 6 5 3 1 1 4 4 6 8 8 6 31 66 71 75 81 90 85 82 85 84 81 78 79 82 78 74 71 70 73
26 18 24 30 28 19 15 11 11 7 7 7 9 4 17 5 14 12 14 15 17 22 9 1 3 3 2 2 3 7 4 8 7 7 57 77 78 85 94 97 97 96 90 85 86 83 86 84 81 79 77 77 76 77
22 22 29 27 18 17 17 9 8 8 7 6 6 7 8 10 12 12 20 13 19 13 5 4 5 1 7 4 5 6 6 7 40 70 81 89 86 91 94 92 85 86 88 87 83 78 78 74 79 80 82 82 80 81
22 27 29 25 12 9 17 11 8 8 8 7 5 13 16 13 14 12 13 13 11 8 6 5 6 3 4 5 5 5 34 61 73 74 82 89 92 91 93 87 86 88 83 80 76 79 81 86 87 86 83 83 81 83
19 21 22 21 12 7 7 10 9 6 7 8 11 15 9 9 10 13 13 11 9 7 8 4 4 4 6 17 19 39 62 58 61 83 88 90 79 81 75 66 64 56 64 72 81 80 74 75 80 76 76 72 73 74
15 20 20 20 17 7 6 8 7 5 8 12 16 18 8 9 16 13 12 11 6 2 4 5 10 12 21 51 48 51 47 47 58 73 74 84 81 78 72 72 67 68 69 83 76 71 67 65 64 62 64 70 77 82
13 18 20 19 14 16 8 9 8 9 9 10 23 12 7 12 9 11 11 14 5 2 8 14 32 37 43 49 41 38 40 40 38 46 57 72 83 76 81 78 87 84 80 83 85 80 75 68 69 63 61 65 71 73
16 19 16 17 15 9 12 16 6 10 7 8 13 14 6 8 12 15 22 6 8 8 11 34 46 41 38 43 34 29 29 35 32 49 56 72 76 83 85 82 86 89 91 91 86 86 72 67 53 44 40 40 46 51
13 12 10 14 10 14 6 11 7 7 6 17 14 9 8 10 12 20 7 8 9 21 41 40 37 31 28 39 40 44 51 47 61 60 51 53 67 73 81 89 81 85 90 94 101 93 88 89 45 27 18 27 23 9
11 6 6 6 7 2 8 5 7 7 6 7 8 11 13 15 20 12 6 11 32 29 32 42 42 44 39 30 37 33 41 51 58 64 57 60 61 68 76 77 73 83 108 93 94 90 104 104 100 46 32 36 24 8
5 3 6 5 2 3 4 7 5 5 4 4 6 6 9 10 6 9 9 28 49 52 53 50 42 37 40 40 42 47 41 51 53 48 57 63 74 75 76 68 73 62 73 106 100 99 93 109 112 112 104 48 24 17
5 3 2 7 5 4 4 7 8 4 3 3 5 6 5 4 5 4 8 35 29 34 41 42 44 32 32 36 47 52 55 57 52 46 58 53 58 65 70 68 66 74 76 69 86 101 100 97 92 106 118 117 109 74
6 6 7 8 7 2 7 7 8 9 8 7 7 7 5 8 9 17 36 34 33 31 28 26 39 36 31 45 46 44 44 47 51 54 55 49 63 60 57 53 55 67 66 72 67 68 92 104 104 103 103 124 127 114
3 9 6 14 8 9 5 6 6 5 6 11 9 12 8 8 4 23 28 22 35 36 37 37 26 18 21 25 32 40 43 45 50 52 51 43 54 54 50 48 50 54 62 61 66 70 70 72 88 97 101 107 118 113
3 16 3 8 5 8 6 4 6 7 11 10 5 6 11 22 32 38 47 42 27 43 52 58 55 45 40 45 48 47 46 50 59 60 52 51 53 54 52 41 45 53 56 51 56 62 64 64 61 59 71 84 90 98
7 18 5 6 6 5 6 5 7 9 13 11 5 18 37 37 37 32 38 41 40 35 46 47 48 51 52 49 44 46 46 49 47 56 54 43 36 37 38 34 39 44 48 48 53 54 57 60 60 64 64 61 65 72
8 4 7 10 8 15 12 9 13 8 22 14 24 35 29 23 33 45 55 55 43 41 46 45 47 47 47 42 32 38 45 47 47 50 54 52 43 34 34 40 38 39 43 46 54 60 65 67 66 64 67 70 65 56
3 5 10 5 4 1 4 15 13 13 19 24 27 25 25 30 22 35 41 53 41 41 36 39 44 49 42 30 25 28 25 37 37 49 44 42 44 39 35 40 46 46 44 47 54 56 58 57 55 56 63 68 69 67
6 12 10 13 11 10 13 13 10 10 5 7 13 15 14 8 18 41 46 44 36 42 38 38 43 43 40 40 39 40 38 27 32 37 46 53 47 38 42 48 51 53 56 56 56 56 62 62 60 60 62 64 64 65
Wind_Direction_500mb
352 350 347 346 345 344 342 339 340 341 344 337 342 339 338 336 321 160 89 75 30 292 283 250 12 13 21 38 83 327 18 355 24 62 102 228 167 269 351 275 144 135 109 222 106 99 262 356 330 49 235 256 260 252
347 349 350 350 346 342 341 336 339 336 334 334 340 334 339 340 334 135 187 316 302 288 283 267 286 259 108 46 11 37 107 120 67 85 25 117 347 7 152 241 333 278 136 226 164 220 306 356 323 339 229 193 172 158
346 347 347 345 345 344 342 338 340 341 334 332 341 343 347 347 0 91 63 328 293 292 304 80 61 114 121 89 51 86 70 57 51 33 157 181 307 134 158 244 305 310 359 24 55 351 336 9 17 23 359 256 167 156
351 348 346 346 344 348 345 344 343 352 349 337 339 344 352 2 35 105 85 43 44 8 62 56 88 99 95 89 60 72 96 47 327 315 75 130 197 157 216 213 151 234 342 337 327 341 358 4 8 14 41 81 105 111
352 355 353 350 349 350 350 348 358 359 345 345 359 347 0 37 74 117 88 57 29 32 265 334 86 83 78 99 97 48 19 150 146 245 89 235 242 106 25 56 280 211 180 96 188 330 283 324 341 358 12 21 84 93
359 356 354 355 0 356 354 348 352 7 6 21 16 7 25 74 128 118 102 73 21 11 4 39 39 58 46 60 49 62 38 54 158 169 233 260 248 190 196 210 275 127 51 2 313 323 326 332 339 342 351 16 48 104
354 354 354 350 345 348 345 351 351 3 9 5 1 14 44 72 82 80 76 131 3 357 19 4 356 41 20 39 52 42 40 37 235 206 230 255 286 33 123 194 302 283 286 290 295 303 287 289 316 325 317 324 22 84
357 360 360 352 355 357 2 7 14 8 2 14 32 68 82 85 91 75 49 27 355 62 51 71 291 33 15 23 16 3 337 315 51 281 269 254 297 155 257 249 323 326 324 321 309 294 281 285 279 266 247 279 290 323
3 5 7 9 17 22 20 12 1 2 24 47 94 93 78 42 47 52 59 60 62 62 90 70 85 296 357 18 3 359 357 9 334 355 269 7 283 227 220 354 16 3 343 299 291 283 297 284 248 250 236 238 244 249
7 2 10 9 9 13 14 15 22 33 51 58 75 47 53 36 56 1 11 27 33 34 49 78 320 292 350 0 21 3 15 5 352 265 315 137 258 261 309 322 338 345 359 348 282 266 270 285 271 239 236 239 240 241
0 353 1 11 14 10 8 4 2 15 31 35 38 52 34 14 9 23 40 31 349 34 36 32 341 315 12 37 319 19 322 294 351 278 93 289 277 223 15 1 354 351 343 345 357 313 276 274 288 253 237 238 240 242
351 354 358 1 8 15 22 23 24 27 31 33 41 44 13 15 13 64 22 8 26 23 349 359 352 339 360 8 43 13 10 356 268 330 343 267 249 331 347 337 337 335 332 326 325 323 313 294 282 266 246 248 250 253
348 350 0 16 16 8 4 9 16 14 20 32 30 25 9 359 36 50 7 19 107 46 1 322 309 14 52 21 39 9 314 247 311 311 248 234 241 333 330 329 323 324 322 317 314 310 304 296 285 272 265 255 255 254
347 343 331 356 351 352 356 356 1 7 27 49 26 16 34 33 27 6 3 55 38 5 359 343 301 315 99 46 90 317 298 327 301 251 245 260 317 321 320 319 313 309 309 308 301 301 301 294 286 281 275 270 263 260
347 342 327 345 345 352 357 5 28 29 50 54 36 38 58 349 38 10 12 24 360 342 336 327 310 227 144 132 164 318 294 265 230 248 260 309 312 309 304 302 304 303 301 299 296 297 292 286 284 280 272 270 268 262
358 2 351 350 359 9 18 36 75 60 56 49 46 53 358 21 340 12 8 352 354 344 349 342 344 10 244 158 184 221 252 245 274 287 306 304 302 303 305 306 304 303 300 299 295 291 289 283 277 275 278 272 271 261
2 9 6 5 23 40 36 76 42 50 59 55 32 347 342 305 294 321 327 339 345 356 29 3 18 336 302 261 232 195 233 277 302 300 303 306 303 304 304 303 306 302 298 296 296 291 285 284 279 273 270 266 261 260
14 18 14 10 31 55 40 45 50 49 52 35 355 344 330 306 307 335 335 345 356 16 358 17 317 298 274 263 289 268 289 296 304 305 307 315 318 318 315 310 316 304 305 300 302 297 292 286 275 268 270 270 264 261
21 19 9 7 26 55 38 39 45 50 12 350 344 353 345 333 345 343 340 333 294 300 313 352 284 248 243 240 256 280 300 299 302 311 321 323 325 335 343 344 327 324 329 314 303 297 293 285 277 276 269 262 255 255
16 20 18 26 39 53 57 41 26 24 3 351 358 357 352 7 4 354 339 326 297 270 242 223 227 241 258 294 304 296 304 313 316 312 332 345 350 352 341 344 342 347 338 335 326 325 313 301 293 283 274 267 257 253
21 30 29 37 40 46 59 25 28 12 351 346 2 4 348 1 350 341 328 339 344 269 261 271 296 336 336 332 334 325 326 333 337 337 328 327 351 350 3 3 358 352 343 341 330 322 324 315 314 300 283 276 269 262
22 18 29 35 30 44 41 19 15 1 355 334 337 352 342 340 347 348 344 336 284 291 298 324 340 354 17 20 22 19 11 358 334 333 347 0 351 2 5 359 353 353 351 345 337 342 343 343 335 316 297 283 277 272
17 24 31 20 29 22 44 22 11 27 17 352 1 4 355 353 1 341 336 318 319 11 27 16 21 11 1 18 30 23 7 2 11 13 359 355 357 360 6 7 13 11 5 5 2 6 10 14 9 359 358 341 313 287
20 28 22 33 48 323 309 322 344 346 358 12 6 351 348 334 338 1 309 321 355 20 14 7 358 352 12 25 16 16 18 6 9 5 5 4 352 355 2 6 6 17 24 19 19 17 19 23 33 31 13 11 35 136
357 41 37 26 35 322 304 325 332 357 2 14 21 352 348 351 11 2 320 326 9 18 15 12 14 20 17 28 26 22 13 7 359 353 7 11 8 14 17 19 19 12 16 30 27 25 30 35 39 38 45 50 37 30
63 53 56 14 351 52 360 9 357 349 33 17 2 328 316 38 12 336 293 340 355 358 8 21 18 15 26 18 11 8 3 11 17 8 20 19 9 15 15 16 20 23 20 20 28 38 40 42 43 44 45 47 48 55
36 352 348 343 332 351 59 52 26 32 9 5 325 313 29 28 9 335 0 13 20 11 0 19 30 9 21 7 358 1 4 11 16 19 30 36 35 33 29 24 27 31 30 30 29 30 42 47 48 50 52 54 54 54
5 14 343 342 51 45 86 53 39 13 331 348 340 14 33 24 307 1 12 16 17 27 36 33 32 22 1 358 345 351 1 16 23 23 28 30 31 35 35 45 44 39 41 43 45 46 48 44 50 59 61 63 63 58
30 358 20 60 63 53 42 58 28 25 11 32 39 40 53 38 29 29 35 28 34 31 32 28 28 32 39 37 34 20 29 26 20 23 31 31 41 41 27 34 36 41 48 54 57 55 56 56 56 53 53 60 68 72
8 1 42 47 57 49 48 52 33 18 8 11 78 101 80 54 49 43 20 21 24 17 11 24 23 21 22 23 19 27 35 31 27 31 34 38 35 24 27 29 38 40 39 45 51 61 60 58 61 64 64 61 61 64
324 32 77 65 32 38 41 62 96 74 17 35 109 102 92 76 54 35 27 24 20 22 24 23 25 23 16 23 32 43 48 41 36 37 27 20 22 26 35 44 48 47 43 44 53 55 60 64 63 63 66 68 67 67
290 151 130 95 98 299 86 46 34 350 33 81 98 94 68 59 44 18 15 16 29 29 28 27 22 16 14 21 34 60 56 38 29 18 23 31 29 27 28 37 44 50 51 49 47 49 51 56 62 69 72 72 71 71
240 192 158 148 143 119 111 116 239 299 351 44 41 28 24 33 37 13 15 18 35 38 32 27 27 29 44 44 46 47 32 28 46 50 43 39 33 35 44 54 56 57 57 56 54 52 54 56 59 64 67 68 68 71
Wind_Speed_850mb
49 47 44 41 33 35 36 36 36 36 23 19 21 18 21 16 6 8 9 3 2 6 11 4 5 10 7 9 5 13 6 13 11 9 4 2 4 5 5 5 7 4 2 4 4 5 11 45 25 4 13 9 12 8
46 43 42 38 38 37 37 34 34 29 24 18 18 16 19 15 8 2 6 5 8 11 8 9 11 8 4 8 9 10 6 1 5 7 3 1 2 5 3 5 12 1 4 6 9 6 16 39 30 34 13 16 19 24
44 42 42 40 38 37 35 34 30 29 19 16 13 15 17 14 7 5 5 7 8 8 6 6 13 16 12 10 6 5 7 7 5 7 6 3 1 4 3 4 5 6 11 1 4 8 27 55 70 47 18 11 28 28
46 44 39 37 36 35 31 27 27 25 15 16 12 12 17 10 5 10 13 16 12 4 4 5 18 20 17 6 4 10 12 5 3 4 3 3 2 3 5 5 3 7 11 8 8 15 28 56 67 68 36 15 18 19
46 45 40 37 35 29 24 25 24 16 17 16 8 11 13 7 7 16 16 15 17 10 2 5 24 27 18 8 6 6 6 1 4 1 3 5 6 0 2 4 5 2 3 5 5 12 4 31 53 52 47 24 22 20
41 41 40 35 30 26 22 22 20 18 17 12 10 11 10 9 19 10 5 7 8 18 6 3 5 14 17 12 8 6 6 4 4 4 6 8 7 2 2 5 10 11 10 17 8 35 37 42 35 39 33 34 6 15
41 43 41 38 28 22 21 19 17 15 15 14 11 9 8 8 8 8 6 3 6 15 6 7 10 9 18 10 11 10 8 4 4 5 7 7 5 2 4 5 9 35 42 51 60 53 37 32 33 31 21 24 17 13
42 41 42 32 32 24 20 16 15 15 19 12 9 11 13 17 18 13 12 5 7 6 7 4 6 7 23 13 7 15 11 5 5 5 4 4 8 2 4 14 14 30 38 38 27 36 46 43 34 20 15 23 24 4
39 39 40 35 27 24 22 20 17 17 15 14 14 18 13 12 10 11 15 13 11 7 5 5 3 2 15 12 10 7 9 5 12 2 4 2 3 8 11 6 24 36 37 47 55 45 33 37 40 33 28 23 22 24
35 37 39 34 27 24 24 25 18 13 13 15 9 7 8 8 7 6 5 4 6 9 8 5 1 3 12 13 10 12 8 3 6 7 12 1 7 22 10 4 24 31 45 43 30 44 47 47 36 49 48 43 38 34
31 31 32 35 31 25 25 24 15 12 10 10 9 7 7 5 6 4 5 7 9 7 7 5 3 3 10 5 3 7 1 4 5 8 2 5 6 5 8 22 33 35 41 39 34 27 38 43 32 40 42 41 40 39
34 30 25 27 28 28 26 24 22 17 11 9 6 6 7 6 4 5 4 3 5 6 8 4 4 4 4 5 5 7 2 5 7 16 4 6 7 3 26 39 51 55 56 55 56 50 35 30 31 35 39 37 36 37
32 25 18 25 30 28 24 21 20 16 8 7 6 4 7 7 13 8 7 3 4 1 11 5 3 2 2 7 4 4 4 6 14 2 6 8 5 29 48 60 66 72 71 74 81 76 70 65 53 49 52 51 48 48
32 23 10 18 23 27 26 19 13 12 6 5 8 10 6 6 6 6 6 5 8 14 29 15 4 2 1 2 2 3 3 5 5 6 9 5 27 64 74 70 63 78 84 81 73 71 78 71 71 73 73 70 66 72
30 18 12 26 34 28 18 15 9 6 5 6 6 7 7 6 9 13 17 7 13 21 20 10 6 5 3 1 1 4 4 6 8 8 6 31 66 71 75 81 90 85 82 85 84 81 78 79 82 78 74 71 70 73
26 18 24 30 28 19 15 11 11 7 7 7 9 4 17 5 14 12 14 15 17 22 9 1 3 3 2 2 3 7 4 8 7 7 57 77 78 85 94 97 97 96 90 85 86 83 86 84 81 79 77 77 76 77
22 22 29 27 18 17 17 9 8 8 7 6 6 7 8 10 12 12 20 13 19 13 5 4 5 1 7 4 5 6 6 7 40 70 81 89 86 91 94 92 85 86 88 87 83 78 78 74 79 80 82 82 80 81
22 27 29 25 12 9 17 11 8 8 8 7 5 13 16 13 14 12 13 13 11 8 6 5 6 3 4 5 5 5 34 61 73 74 82 89 92 91 93 87 86 88 83 80 76 79 81 86 87 86 83 83 81 83
19 21 22 21 12 7 7 10 9 6 7 8 11 15 9 9 10 13 13 11 9 7 8 4 4 4 6 17 19 39 62 58 61 83 88 90 79 81 75 66 64 56 64 72 81 80 74 75 80 76 76 72 73 74
15 20 20 20 17 7 6 8 7 5 8 12 16 18 8 9 16 13 12 11 6 2 4 5 10 12 21 51 48 51 47 47 58 73 74 84 81 78 72 72 67 68 69 83 76 71 67 65 64 62 64 70 77 82
13 18 20 19 14 16 8 9 8 9 9 10 23 12 7 12 9 11 11 14 5 2 8 14 32 37 43 49 41 38 40 40 38 46 57 72 83 76 81 78 87 84 80 83 85 80 75 68 69 63 61 65 71 73
16 19 16 17 15 9 12 16 6 10 7 8 13 14 6 8 12 15 22 6 8 8 11 34 46 41 38 43 34 29 29 35 32 49 56 72 76 83 85 82 86 89 91 91 86 86 72 67 53 44 40 40 46 51
13 12 10 14 10 14 6 11 7 7 6 17 14 9 8 10 12 20 7 8 9 21 41 40 37 31 28 39 40 44 51 47 61 60 51 53 67 73 81 89 81 85 90 94 101 93 88 89 45 27 18 27 23 9
11 6 6 6 7 2 8 5 7 7 6 7 8 11 13 15 20 12 6 11 32 29 32 42 42 44 39 30 37 33 41 51 58 64 57 60 61 68 76 77 73 83 108 93 94 90 104 104 100 46 32 36 24 8
5 3 6 5 2 3 4 7 5 5 4 4 6 6 9 10 6 9 9 28 49 52 53 50 42 37 40 40 42 47 41 51 53 48 57 63 74 75 76 68 73 62 73 106 100 99 93 109 112 112 104 48 24 17
5 3 2 7 5 4 4 7 8 4 3 3 5 6 5 4 5 4 8 35 29 34 41 42 44 32 32 36 47 52 55 57 52 46 58 53 58 65 70 68 66 74 76 69 86 101 100 97 92 106 118 117 109 74
6 6 7 8 7 2 7 7 8 9 8 7 7 7 5 8 9 17 36 34 33 31 28 26 39 36 31 45 46 44 44 47 51 54 55 49 63 60 57 53 55 67 66 72 67 68 92 104 104 103 103 124 127 114
3 9 6 14 8 9 5 6 6 5 6 11 9 12 8 8 4 23 28 22 35 36 37 37 26 18 21 25 32 40 43 45 50 52 51 43 54 54 50 48 50 54 62 61 66 70 70 72 88 97 101 107 118 113
3 16 3 8 5 8 6 4 6 7 11 10 5 6 11 22 32 38 47 42 27 43 52 58 55 45 40 45 48 47 46 50 59 60 52 51 53 54 52 41 45 53 56 51 56 62 64 64 61 59 71 84 90 98
7 18 5 6 6 5 6 5 7 9 13 11 5 18 37 37 37 32 38 41 40 35 46 47 48 51 52 49 44 46 46 49 47 56 54 43 36 37 38 34 39 44 48 48 53 54 57 60 60 64 64 61 65 72
8 4 7 10 8 15 12 9 13 8 22 14 24 35 29 23 33 45 55 55 43 41 46 45 47 47 47 42 32 38 45 47 47 50 54 52 43 34 34 40 38 39 43 46 54 60 65 67 66 64 67 70 65 56
3 5 10 5 4 1 4 15 13 13 19 24 27 25 25 30 22 35 41 53 41 41 36 39 44 49 42 30 25 28 25 37 37 49 44 42 44 39 35 40 46 46 44 47 54 56 58 57 55 56 63 68 69 67
6 12 10 13 11 10 13 13 10 10 5 7 13 15 14 8 18 41 46 44 36 42 38 38 43 43 40 40 39 40 38 27 32 37 46 53 47 38 42 48 51 53 56 56 56 56 62 62 60 60 62 64 64 65
Wind_Direction_850mb
352 350 347 346 345 344 342 339 340 341 344 337 342 339 338 336 321 160 89 75 30 292 283 250 12 13 21 38 83 327 18 355 24 62 102 228 167 269 351 275 144 135 109 222 106 99 262 356 330 49 235 256 260 252
347 349 350 350 346 342 341 336 339 336 334 334 340 334 339 340 334 135 187 316 302 288 283 267 286 259 108 46 11 37 107 120 67 85 25 117 347 7 152 241 333 278 136 226 164 220 306 356 323 339 229 193 172 158
346 347 347 345 345 344 342 338 340 341 334 332 341 343 347 347 0 91 63 328 293 292 304 80 61 114 121 89 51 86 70 57 51 33 157 181 307 134 158 244 305 310 359 24 55 351 336 9 17 23 359 256 167 156
351 348 346 346 344 348 345 344 343 352 349 337 339 344 352 2 35 105 85 43 44 8 62 56 88 99 95 89 60 72 96 47 327 315 75 130 197 157 216 213 151 234 342 337 327 341 358 4 8 14 41 81 105 111
352 355 353 350 349 350 350 348 358 359 345 345 359 347 0 37 74 117 88 57 29 32 265 334 86 83 78 99 97 48 19 150 146 245 89 235 242 106 25 56 280 211 180 96 188 330 283 324 341 358 12 21 84 93
359 356 354 355 0 356 354 348 352 7 6 21 16 7 25 74 128 118 102 73 21 11 4 39 39 58 46 60 49 62 38 54 158 169 233 260 248 190 196 210 275 127 51 2 313 323 326 332 339 342 351 16 48 104
354 354 354 350 345 348 345 351 351 3 9 5 1 14 44 72 82 80 76 131 3 357 19 4 356 41 20 39 52 42 40 37 235 206 230 255 286 33 123 194 302 283 286 290 295 303 287 289 316 325 317 324 22 84
357 360 360 352 355 357 2 7 14 8 2 14 32 68 82 85 91 75 49 27 355 62 51 71 291 33 15 23 16 3 337 315 51 281 269 254 297 155 257 249 323 326 324 321 309 294 281 285 279 266 247 279 290 323
3 5 7 9 17 22 20 12 1 2 24 47 94 93 78 42 47 52 59 60 62 62 90 70 85 296 357 18 3 359 357 9 334 355 269 7 283 227 220 354 16 3 343 299 291 283 297 284 248 250 236 238 244 249
7 2 10 9 9 13 14 15 22 33 51 58 75 47 53 36 56 1 11 27 33 34 49 78 320 292 350 0 21 3 15 5 352 265 315 137 258 261 309 322 338 345 359 348 282 266 270 285 271 239 236 239 240 241
0 353 1 11 14 10 8 4 2 15 31 35 38 52 34 14 9 23 40 31 349 34 36 32 341 315 12 37 319 19 322 294 351 278 93 289 277 223 15 1 354 351 343 345 357 313 276 274 288 253 237 238 240 242
351 354 358 1 8 15 22 23 24 27 31 33 41 44 13 15 13 64 22 8 26 23 349 359 352 339 360 8 43 13 10 356 268 330 343 267 249 331 347 337 337 335 332 326 325 323 313 294 282 266 246 248 250 253
348 350 0 16 16 8 4 9 16 14 20 32 30 25 9 359 36 50 7 19 107 46 1 322 309 14 52 21 39 9 314 247 311 311 248 234 241 333 330 329 323 324 322 317 314 310 304 296 285 272 265 255 255 254
347 343 331 356 351 352 356 356 1 7 27 49 26 16 34 33 27 6 3 55 38 5 359 343 301 315 99 46 90 317 298 327 301 251 245 260 317 321 320 319 313 309 309 308 301 301 301 294 286 281 275 270 263 260
347 342 327 345 345 352 357 5 28 29 50 54 36 38 58 349 38 10 12 24 360 342 336 327 310 227 144 132 164 318 294 265 230 248 260 309 312 309 304 302 304 303 301 299 296 297 292 286 284 280 272 270 268 262
358 2 351 350 359 9 18 36 75 60 56 49 46 53 358 21 340 12 8 352 354 344 349 342 344 10 244 158 184 221 252 245 274 287 306 304 302 303 305 306 304 303 300 299 295 291 289 283 277 275 278 272 271 261
2 9 6 5 23 40 36 76 42 50 59 55 32 347 342 305 294 321 327 339 345 356 29 3 18 336 302 261 232 195 233 277 302 300 303 306 303 304 304 303 306 302 298 296 296 291 285 284 279 273 270 266 261 260
14 18 14 10 31 55 40 45 50 49 52 35 355 344 330 306 307 335 335 345 356 16 358 17 317 298 274 263 289 268 289 296 304 305 307 315 318 318 315 310 316 304 305 300 302 297 292 286 275 268 270 270 264 261
21 19 9 7 26 55 38 39 45 50 12 350 344 353 345 333 345 343 340 333 294 300 313 352 284 248 243 240 256 280 300 299 302 311 321 323 325 335 343 344 327 324 329 314 303 297 293 285 277 276 269 262 255 255
16 20 18 26 39 53 57 41 26 24 3 351 358 357 352 7 4 354 339 326 297 270 242 223 227 241 258 294 304 296 304 313 316 312 332 345 350 352 341 344 342 347 338 335 326 325 313 301 293 283 274 267 257 253
21 30 29 37 40 46 59 25 28 12 351 346 2 4 348 1 350 341 328 339 344 269 261 271 296 336 336 332 334 325 326 333 337 337 328 327 351 350 3 3 358 352 343 341 330 322 324 315 314 300 283 276 269 262
22 18 29 35 30 44 41 19 15 1 355 334 337 352 342 340 347 348 344 336 284 291 298 324 340 354 17 20 22 19 11 358 334 333 347 0 351 2 5 359 353 353 351 345 337 342 343 343 335 316 297 283 277 272
17 24 31 20 29 22 44 22 11 27 17 352 1 4 355 353 1 341 336 318 319 11 27 16 21 11 1 18 30 23 7 2 11 13 359 355 357 360 6 7 13 11 5 5 2 6 10 14 9 359 358 341 313 287
20 28 22 33 48 323 309 322 344 346 358 12 6 351 348 334 338 1 309 321 355 20 14 7 358 352 12 25 16 16 18 6 9 5 5 4 352 355 2 6 6 17 24 19 19 17 19 23 33 31 13 11 35 136
357 41 37 26 35 322 304 325 332 357 2 14 21 352 348 351 11 2 320 326 9 18 15 12 14 20 17 28 26 22 13 7 359 353 7 11 8 14 17 19 19 12 16 30 27 25 30 35 39 38 45 50 37 30
63 53 56 14 351 52 360 9 357 349 33 17 2 328 316 38 12 336 293 340 355 358 8 21 18 15 26 18 11 8 3 11 17 8 20 19 9 15 15 16 20 23 20 20 28 38 40 42 43 44 45 47 48 55
36 352 348 343 332 351 59 52 26 32 9 5 325 313 29 28 9 335 0 13 20 11 0 19 30 9 21 7 358 1 4 11 16 19 30 36 35 33 29 24 27 31 30 30 29 30 42 47 48 50 52 54 54 54
5 14 343 342 51 45 86 53 39 13 331 348 340 14 33 24 307 1 12 16 17 27 36 33 32 22 1 358 345 351 1 16 23 23 28 30 31 35 35 45 44 39 41 43 45 46 48 44 50 59 61 63 63 58
30 358 20 60 63 53 42 58 28 25 11 32 39 40 53 38 29 29 35 28 34 31 32 28 28 32 39 37 34 20 29 26 20 23 31 31 41 41 27 34 36 41 48 54 57 55 56 56 56 53 53 60 68 72
8 1 42 47 57 49 48 52 33 18 8 11 78 101 80 54 49 43 20 21 24 17 11 24 23 21 22 23 19 27 35 31 27 31 34 38 35 24 27 29 38 40 39 45 51 61 60 58 61 64 64 61 61 64
324 32 77 65 32 38 41 62 96 74 17 35 109 102 92 76 54 35 27 24 20 22 24 23 25 23 16 23 32 43 48 41 36 37 27 20 22 26 35 44 48 47 43 44 53 55 60 64 63 63 66 68 67 67
290 151 130 95 98 299 86 46 34 350 33 81 98 94 68 59 44 18 15 16 29 29 28 27 22 16 14 21 34 60 56 38 29 18 23 31 29 27 28 37 44 50 51 49 47 49 51 56 62 69 72 72 71 71
240 192 158 148 143 119 111 116 239 299 351 44 41 28 24 33 37 13 15 18 35 38 32 27 27 29 44 44 46 47 32 28 46 50 43 39 33 35 44 54 56 57 57 56 54 52 54 56 59 64 67 68 68 71